{"data":{"norad_id":63328,"epoch":"2026-09-20T07:44:06.565344Z","epoch_age_seconds":174180,"freshness":"STALE","line1":"1 63328U 25057X   26263.32229821  .00011662  00000+0  43251-3 0  9992","line2":"2 63328  43.0036   3.9066 0001056 280.3339  79.7393 15.27589246 85598","mean_motion":15.27589246,"eccentricity":0.0001056,"inclination_deg":43.0036,"raan_deg":3.9066,"arg_perigee_deg":280.3339,"mean_anomaly_deg":79.7393,"bstar":0.00043251,"rev_number":8559,"period_min":94.266178147735,"perigee_km":482.29687200094,"apogee_km":483.7459486572,"semimajor_km":6861.1584103291,"source":"CELESTRAK","updated_at":"2026-09-21T09:00:34.971360Z"}}